[Date Prev][Date Next][Thread Prev][Thread Next] - [Date Index][Thread Index][Author Index]
2 Line ISS Keps 9-26
- Subject: [sarex] 2 Line ISS Keps 9-26
- From: "Dave Larsen PhD" <doc@xxxxxxxxxxx>
- Date: Fri, 26 Sep 2003 02:27:27 -0700
ISS
1 25544U 98067A 03269.13991898 .00017671 00000-0 19867-3 0 5574
2 25544 51.6293 231.6118 0005549 288.1800 256.5818 15.62674038276776
----
Via the sarex mailing list at AMSAT.ORG courtesy of AMSAT-NA.
To unsubscribe, send "unsubscribe sarex" to Majordomo@amsat.org
AMSAT Home